Weather in Vasil'yevka

Russia / Lipetsk Oblast     52°46′23″N   37°59′38″E
temp.,
°C
wind,
m/s
gust,
m/s
humid.,
%
clouds,
%
prec.,
mm/h
press.,
hPa
HPBL,
m
23 april, fri
fri2300:00+8ssw4108717 0.0 1019188
03:00+7s498616 0.0 1019176
06:00+6s498576 0.0 1019160
09:00+11s51068100 0.0 1018393
12:00+15ssw81049100 0.2 10162290
15:00+15s61054100 0.3 10151878
18:00+13s69628 0.4 1014752
21:00+10sw3682100 1.3 1013149
24 april, sat
sat2400:00+8s51191100 0.4 1011370
03:00+5wnw6992100 3.6 1010524
06:00+4nw61089100 1.8 1011710
09:00+6wsw5773100 1.9 10101100
12:00+9w675196 0.3 10101978
15:00+8w7854100 0.6 10091520
18:00+6w796470 0.9 10101295
21:00+4w61069100 1.0 1011708
25 april, sun
sun2500:00+2w71192100 0.1 1012853
03:00+2wnw81392100 0.8 1014816
06:000w612865 0.1 1016474
09:00+4w712665 0.1 10161213
12:00+7wsw8114781 0.1 10162126
15:00+9wsw81142100 0.1 10152351
18:00+8sw6104996 0.3 10141797
21:00+4sw71196100 2.1 1014773
26 april, mon
mon2600:00+3w699150 0.9 1015560
03:00+1wsw38935 0.9 1016305
06:000w269116 0.0 1016204
09:00+4wsw3465100 0.0 1016739
12:00+6sw235099 0.1 10141702
15:00+7sw3446100 0.1 10131731
18:00+7wsw455385 0.2 10121315
21:00+5wsw366899 0.4 1012146
27 april, tue
tue2700:00+3sw3780100 0.0 1012190
03:00+2wsw4984100 0.0 1011327
06:00+1w6983100 0.1 1012839
09:00+4w796490 0.1 10121322
12:00+7w7852100 0.8 10132027
15:00+8w794899 2.3 10132092
18:00+7w685554 0.3 10131538
21:00+4wsw410734 0.3 1015274